Home   Weather   Minsk   Past weeks

Flag for Belarus Past Weather in Minsk, Belarus — Yesterday and Last 2 Weeks

Now
30 °F

Snow flurries. Partly cloudy.


Feels Like: 18 °F
Forecast: 2 / 16 °F
Wind: 20 mph from North

Location: Minsk

Current Time: Jan 25, 2017 at 4:30:17 am

Latest Report: Jan 25, 2017 at 4:00 am


Visibility: 5 mi

Pressure: 30.09 "Hg

Humidity: 86%

Dew Point: 27 °F

Location of MinskLocation

Past Weather in Minsk — Graph

°F

Minsk Temperature Yesterday

Maximum temperature yesterday: 34 °F (at 1:30 pm)
Minimum temperature yesterday: 27 °F (at 3:30 am)
Average temperature yesterday: 31 °F

High & Low Weather Summary for the Past Weeks

 TemperatureHumidityPressure
High36 °F (Jan 21, 12:30 pm)100% (Jan 11, 2:00 am)30.69 "Hg (Jan 11, 2:00 am)
Low-8 °F (Jan 10, 4:00 am)77% (Jan 10, 5:30 am)29.33 "Hg (Jan 14, 5:14 pm)
Average25 °F95%30.07 "Hg
* Reported Jan 10 3:00 am — Jan 25 3:30 am, Minsk, Weather by CustomWeather, © 2017

Note: Actual official high and low records may vary slightly from our data, if they occured in-between our weather recording intervals... More about our weather records

Advertising

Minsk Weather History for the Previous 24 Hours

Scroll right to see more
 ConditionsComfort  
Time TempWeatherWind HumidityBarometerVisibility
3:30 am
Wed, Jan 25
30 °FSnow flurries. Partly cloudy.15 mph93%30.07 "Hg3 mi
3:00 am30 °FSnow flurries. Passing clouds.15 mph93%30.07 "Hg3 mi
2:30 am30 °FPassing clouds.13 mph93%30.07 "HgN/A
2:00 am32 °FPassing clouds.10 mph87%30.04 "HgN/A
1:30 am32 °FPassing clouds.10 mph87%30.04 "HgN/A
1:03 am32 °FPartly cloudy.15 mph93%30.04 "HgN/A
12:30 am32 °FPassing clouds.10 mph93%30.04 "HgN/A
12:00 am34 °FPassing clouds.15 mph81%30.04 "HgN/A
11:30 pm
Tue, Jan 24
34 °FPassing clouds.13 mph81%30.04 "HgN/A
11:00 pm34 °FPartly cloudy.10 mph87%30.04 "HgN/A
10:30 pm34 °FSprinkles. Passing clouds.10 mph87%30.04 "HgN/A
10:00 pm34 °FPassing clouds.10 mph87%30.01 "HgN/A
9:30 pm34 °FPassing clouds.10 mph87%30.01 "HgN/A
9:00 pm34 °FSprinkles. Passing clouds.13 mph87%30.01 "HgN/A
8:30 pm34 °FSprinkles. Passing clouds.10 mph87%30.01 "Hg4 mi
8:00 pm34 °FPassing clouds.10 mph87%30.01 "HgN/A
7:30 pm34 °FLight rain. Passing clouds.10 mph87%30.01 "Hg4 mi
7:00 pm34 °FPassing clouds.8 mph87%30.01 "HgN/A
6:30 pm34 °FPartly sunny.8 mph87%30.01 "HgN/A
6:00 pm34 °FPartly sunny.8 mph87%30.01 "HgN/A
5:30 pm34 °FLight rain. Partly sunny.8 mph87%30.01 "HgN/A
5:00 pm34 °FPartly sunny.10 mph87%30.01 "HgN/A
4:30 pm34 °FOvercast.10 mph87%30.01 "HgN/A
4:00 pm34 °FOvercast.8 mph87%30.01 "HgN/A
3:30 pm34 °FOvercast.13 mph87%29.98 "HgN/A
3:00 pm34 °FOvercast.15 mph87%29.98 "HgN/A
2:30 pm34 °FOvercast.8 mph87%29.98 "HgN/A
2:00 pm34 °FOvercast.10 mph87%29.98 "HgN/A
1:30 pm34 °FOvercast.8 mph87%29.98 "HgN/A
1:00 pm32 °FOvercast.8 mph87%29.98 "HgN/A
12:30 pm32 °FPartly sunny.6 mph87%29.98 "Hg6 mi
12:00 pm32 °FPartly sunny.8 mph87%29.98 "Hg6 mi
11:30 am30 °FOvercast.8 mph93%29.98 "Hg5 mi
11:00 am30 °FOvercast.6 mph93%29.98 "Hg5 mi
10:30 am30 °FOvercast.6 mph93%29.98 "Hg4 mi
10:00 am30 °FOvercast.6 mph93%29.98 "Hg4 mi
9:30 am30 °FOvercast.6 mph93%29.98 "Hg4 mi
9:15 am28 °FOvercast.6 mph100%29.98 "Hg5 mi
9:00 am28 °FIce fog.6 mph100%29.98 "Hg3 mi
8:30 am28 °FIce fog.8 mph93%29.95 "Hg3 mi
8:00 am28 °FOvercast.6 mph93%29.95 "Hg4 mi
7:58 am28 °FOvercast.6 mph93%29.95 "Hg4 mi
7:30 am28 °FIce fog.6 mph93%29.95 "Hg3 mi
7:00 am28 °FIce fog.6 mph93%29.98 "Hg2 mi
6:44 am28 °FIce fog.6 mph93%29.98 "Hg2 mi
6:30 am28 °FIce fog.6 mph93%29.98 "Hg2 mi
6:00 am28 °FIce fog.8 mph93%29.98 "Hg3 mi
5:42 am27 °FIce fog.8 mph100%29.98 "Hg2 mi
5:30 am27 °FIce fog.6 mph100%29.98 "Hg2 mi
5:00 am27 °FIce fog.6 mph100%29.98 "Hg3 mi
4:30 am27 °FIce fog.6 mph100%29.98 "Hg3 mi
4:00 am27 °FIce fog.8 mph100%30.01 "Hg3 mi
Weather by CustomWeather, © 2017

See weather overviewHow to use our weather pages